ETD249 EHAM-OMAA

Flight info

Callsign ETD249
Flight time N/A
Altitude 35000
Route EDUPO Z739 MISGO DCT DOJOH DCT DODEN DCT NEGIX DCT DINKU M867 XERUM DCT BAVAX DCT RADIZ DCT LUMUS/N0483F370 DCT GORPA DCT NIVES DCT VRANA DCT DIMIS DCT SALUN N705 MMA P751 DASUM Y234 FYM M872 KULKI/N0490F390 M872 BDB Y214 RAPMA DCT KUVSO DCT KATIT DCT DANUX DCT TANSU/N0514F330 G783 VAVIM P899 ROVOS
Aircraft A35K/H-SDE2E3GHIJ3J4J5LM1ORWXY/LB1D1

Departure

Time 2026-05-05 13:29
Airport Amsterdam Airport Schiphol (EHAM)

Arrival

Time N/A
Airport Zayed International Airport (OMAA)
Time Latitude Longitude Altitude Speed Heading
2026-05-05 13:13 52.31153 4.76503 4 ft 0 kts 125°
2026-05-05 13:18 52.31162 4.76483 6 ft 3 kts 125°
2026-05-05 13:19 52.31173 4.76459 8 ft 3 kts 119°
2026-05-05 13:19 52.31179 4.76429 5 ft 3 kts 84°
2026-05-05 13:19 52.31174 4.76399 7 ft 3 kts 49°
2026-05-05 13:19 52.31167 4.76387 7 ft 0 kts 34°
2026-05-05 13:21 52.31222 4.76427 7 ft 13 kts 17°
2026-05-05 13:21 52.31338 4.76434 11 ft 22 kts 350°
2026-05-05 13:21 52.31462 4.76373 22 ft 15 kts 338°
2026-05-05 13:21 52.31530 4.76262 25 ft 14 kts 290°
2026-05-05 13:22 52.31536 4.76103 23 ft 14 kts 269°
2026-05-05 13:22 52.31532 4.75939 27 ft 16 kts 267°
2026-05-05 13:22 52.31524 4.75731 17 ft 21 kts 266°
2026-05-05 13:22 52.31514 4.75458 17 ft 27 kts 266°
2026-05-05 13:23 52.31502 4.75143 16 ft 28 kts 266°
2026-05-05 13:23 52.31490 4.74830 20 ft 27 kts 266°
2026-05-05 13:23 52.31479 4.74532 27 ft 26 kts 267°
2026-05-05 13:23 52.31459 4.74227 23 ft 26 kts 240°
2026-05-05 13:24 52.31301 4.74127 24 ft 26 kts 184°
2026-05-05 13:24 52.31112 4.74111 17 ft 28 kts 183°
2026-05-05 13:24 52.30913 4.74094 17 ft 28 kts 183°
2026-05-05 13:24 52.30716 4.74075 18 ft 29 kts 183°
2026-05-05 13:25 52.30524 4.74057 23 ft 26 kts 183°
2026-05-05 13:25 52.30393 4.74045 23 ft 17 kts 183°
2026-05-05 13:25 52.30297 4.74005 25 ft 13 kts 206°
2026-05-05 13:25 52.30218 4.73912 22 ft 14 kts 221°
2026-05-05 13:26 52.30210 4.73898 21 ft 0 kts 227°
2026-05-05 13:27 52.30203 4.73885 25 ft 5 kts 232°
2026-05-05 13:27 52.30210 4.73769 24 ft 13 kts 312°
2026-05-05 13:27 52.30266 4.73742 18 ft 0 kts
2026-05-05 13:28 52.30409 4.73755 20 ft 54 kts
2026-05-05 13:29 52.31009 4.73813 27 ft 117 kts
2026-05-05 13:29 52.32009 4.73904 57 ft 167 kts
2026-05-05 13:29 52.33232 4.73986 454 ft 185 kts
2026-05-05 13:29 52.34509 4.74013 1318 ft 182 kts
2026-05-05 13:30 52.35714 4.74801 1799 ft 198 kts 30°
2026-05-05 13:30 52.36998 4.75959 2160 ft 223 kts 29°
2026-05-05 13:30 52.38300 4.77492 2653 ft 237 kts 44°
2026-05-05 13:30 52.39458 4.79465 3385 ft 242 kts 47°
2026-05-05 13:31 52.40610 4.81501 4222 ft 244 kts 46°
2026-05-05 13:31 52.41718 4.83682 4800 ft 256 kts 57°
2026-05-05 13:31 52.42357 4.86433 5413 ft 264 kts 82°
2026-05-05 13:31 52.42449 4.89429 6148 ft 268 kts 90°
2026-05-05 13:32 52.42439 4.92525 6836 ft 274 kts 90°
2026-05-05 13:32 52.42386 4.95669 7545 ft 278 kts 95°
2026-05-05 13:32 52.41846 4.98717 8234 ft 282 kts 120°
2026-05-05 13:32 52.40559 5.01123 9044 ft 282 kts 142°
2026-05-05 13:33 52.38959 5.03035 9821 ft 286 kts 146°
2026-05-05 13:33 52.37287 5.04912 10345 ft 300 kts 146°
2026-05-05 13:33 52.35510 5.06917 10641 ft 321 kts 146°
2026-05-05 13:33 52.33648 5.09142 10900 ft 342 kts 140°
2026-05-05 13:34 52.31918 5.11957 11189 ft 360 kts 133°
2026-05-05 13:34 52.30202 5.15083 11470 ft 377 kts 131°
2026-05-05 13:34 52.28463 5.18278 11980 ft 385 kts 132°
2026-05-05 13:34 52.26673 5.21552 12634 ft 389 kts 132°
2026-05-05 13:35 52.24861 5.24888 13210 ft 396 kts 130°
2026-05-05 13:35 52.23180 5.28478 13858 ft 400 kts 126°
2026-05-05 13:35 52.21562 5.32206 14445 ft 405 kts 126°
2026-05-05 13:35 52.19936 5.35972 15122 ft 406 kts 126°
2026-05-05 13:36 52.18311 5.39726 15817 ft 408 kts 126°
2026-05-05 13:36 52.16664 5.43517 16477 ft 409 kts 126°
2026-05-05 13:36 52.15013 5.47307 17173 ft 409 kts 126°
2026-05-05 13:36 52.13389 5.51030 17936 ft 410 kts 127°
2026-05-05 13:37 52.11731 5.54823 18509 ft 413 kts 127°
2026-05-05 13:37 52.10057 5.58646 19063 ft 417 kts 127°
2026-05-05 13:37 52.08361 5.62511 19558 ft 421 kts 127°
2026-05-05 13:37 52.06642 5.66397 20106 ft 426 kts 128°
2026-05-05 13:38 52.04768 5.70149 20697 ft 428 kts 131°
2026-05-05 13:38 52.02812 5.73818 21312 ft 430 kts 132°
2026-05-05 13:38 52.00833 5.77498 21867 ft 434 kts 132°
2026-05-05 13:38 51.98842 5.81197 22432 ft 437 kts 132°
2026-05-05 13:39 51.96829 5.84936 23005 ft 441 kts 132°
2026-05-05 13:39 51.94804 5.88702 23534 ft 444 kts 133°
2026-05-05 13:39 51.92793 5.92451 23996 ft 448 kts 133°
2026-05-05 13:39 51.90717 5.96325 24441 ft 452 kts 133°
2026-05-05 13:40 51.88674 6.00130 24914 ft 454 kts 133°
2026-05-05 13:40 51.86593 6.04000 25443 ft 456 kts 133°
2026-05-05 13:40 51.84506 6.07877 25915 ft 459 kts 133°
2026-05-05 13:40 51.82389 6.11789 26383 ft 462 kts 134°
2026-05-05 13:41 51.80261 6.15694 26860 ft 465 kts 134°
2026-05-05 13:41 51.78114 6.19618 27312 ft 467 kts 134°
2026-05-05 13:41 51.75951 6.23568 27744 ft 470 kts 134°
2026-05-05 13:41 51.73779 6.27535 28190 ft 473 kts 134°
2026-05-05 13:42 51.71583 6.31530 28595 ft 476 kts 134°
2026-05-05 13:42 51.69409 6.35480 29006 ft 478 kts 134°
2026-05-05 13:42 51.67188 6.39510 29415 ft 481 kts 135°
2026-05-05 13:42 51.64964 6.43542 29821 ft 482 kts 135°
2026-05-05 13:43 51.62743 6.47569 30298 ft 480 kts 135°
2026-05-05 13:43 51.60520 6.51598 30636 ft 482 kts 135°
2026-05-05 13:43 51.58282 6.55642 31037 ft 482 kts 135°
2026-05-05 13:43 51.56057 6.59654 31468 ft 480 kts 135°
2026-05-05 13:44 51.53836 6.63653 31923 ft 479 kts 135°
2026-05-05 13:44 51.49545 6.71361 32701 ft 476 kts 136°
2026-05-05 13:44 51.45133 6.79265 33500 ft 473 kts 137°
2026-05-05 13:44 51.40739 6.87110 34174 ft 471 kts 137°
2026-05-05 13:45 51.36259 6.94563 34641 ft 469 kts 141°
2026-05-05 13:45 51.31504 7.01742 34872 ft 470 kts 141°
2026-05-05 13:45 51.21996 7.16192 34849 ft 472 kts 141°
2026-05-05 13:46 51.12569 7.30685 34852 ft 470 kts 141°
2026-05-05 13:46 51.03170 7.45038 34842 ft 466 kts 141°
2026-05-05 13:47 50.93862 7.59162 34818 ft 466 kts 141°
2026-05-05 13:47 50.84462 7.73343 34835 ft 466 kts 141°
2026-05-05 13:48 50.75029 7.87429 34851 ft 465 kts 142°
2026-05-05 13:48 50.65611 8.01375 34854 ft 467 kts 142°
2026-05-05 13:49 50.56632 8.16333 34811 ft 472 kts 134°
2026-05-05 13:49 50.48432 8.32476 34803 ft 471 kts 133°
2026-05-05 13:50 50.40207 8.48559 34803 ft 473 kts 134°
2026-05-05 13:50 50.31650 8.63931 34809 ft 468 kts 139°
2026-05-05 13:51 50.22683 8.78520 34816 ft 464 kts 138°
2026-05-05 13:51 50.13846 8.93174 34814 ft 464 kts 138°
2026-05-05 13:52 50.04968 9.07832 35326 ft 463 kts 137°